Regional Weather Roundup
Issued by NWS Jackson, KY

Home | Current Version | Previous Version | Text Only | Print | Product List | Glossary Off
Versions: 1 2 3 4 5 6 7 8 9 10 11 12 13 14 15 16 17 18 19 20 21 22 23 24 25 26 27 28 29 30 31 32 33 34 35 36 37 38 39 40 41 42 43 44 45 46 47 48 49 50

000
ASUS43 KJKL 061710
RWRJKL

EAST KENTUCKY HOURLY WEATHER ROUNDUP
NATIONAL WEATHER SERVICE JACKSON KY
100 PM EDT MON JUL 06 2015

NOTE: "FAIR" INDICATES FEW OR NO CLOUDS BELOW 12,000 FEET WITH
NO SIGNIFICANT WEATHER AND/OR OBSTRUCTIONS TO VISIBILITY.

* THESE REPORTS ARE NOT UNDER NWS QUALITY CONTROL AND MAY NOT
  REPORT WEATHER SUCH AS PRECIPITATION AND FOG.

KYZ079-080-083-085-087-088-110-112-115-119-120-061800
...EASTERN KENTUCKY...

CITY           SKY/WX    TMP DP  RH WIND       PRES   REMARKS
JACKSON        MOSUNNY   77  67  71 CALM      30.15F
LONDON         MOSUNNY   77  65  66 W8        30.16F
SOMERSET*      PTSUNNY   77  68  73 W8        30.16F
MONTICELLO*    MOSUNNY   82  72  72 W9        30.18S
MIDDLESBORO*   MOSUNNY   81  67  64 W6        30.17R
HARLAN APT*      N/A     77  61  57 W6        30.17S
BLACK MTN*       N/A     66  61  82 CALM        N/A
PIKEVILLE APT* PTSUNNY   72  68  88 SW3       30.15F
BIG SANDY*     PTSUNNY   75  69  79 SW5       30.14F
MOREHEAD APT*  MOSUNNY   79  64  61 W7        30.14F
$$

KYZ035-036-041-042-044-050-067-078-099-061800
...CENTRAL KENTUCKY...

CITY           SKY/WX    TMP DP  RH WIND       PRES   REMARKS
MT STERLING*   PTSUNNY   77  68  73 W6        30.14F
FLEMING/MASON* MOSUNNY   79  64  61 W9        30.12F
DANVILLE*      CLOUDY    81  70  69 S8        30.14S
RICHMOND*      PTSUNNY   79  64  61 W8        30.13F
LEXINGTON      SUNNY     80  66  62 S8        30.12F
FRANKFORT      SUNNY     81  64  56 SW5       30.10S
$$

KYZ091>093-OHZ055-061-077-WVZ005-015-034-035-042-061800
...SOUTHERN OHIO/WEST VIRGINIA...

CITY           SKY/WX    TMP DP  RH WIND       PRES   REMARKS
COVINGTON      MOSUNNY   80  65  59 SW6       30.10S
COLUMBUS       PTSUNNY   81  63  54 VRB5      30.06F
DAYTON         MOSUNNY   81  63  54 VRB3      30.10S
WILMINGTON     MOSUNNY   78  61  55 W8        30.10S
HUNTINGTON     PTSUNNY   77  68  73 S5        30.09F
CHARLESTON     PTSUNNY   75  68  78 SW9       30.10S HAZE
PINEVILLE*     CLOUDY    70  68  92 MISG      30.22S
BECKLEY        CLOUDY    68  63  84 SW12      30.19R
BLUEFIELD      PTSUNNY   75  62  64 W10G20    30.20F
$$

VAZ002-007-008-TNZ017-027-036-066-071-061800
...SOUTHWEST VIRGINIA/EAST TENNESSEE...

CITY           SKY/WX    TMP DP  RH WIND       PRES   REMARKS
WISE*          CLOUDY    68  61  77 SW7       30.23S
JONESVILLE*      N/A    N/A N/A N/A MISG        N/A
ABINGDON*      CLOUDY    74  65  72 W8        30.20S
BRISTOL        PTSUNNY   79  65  62 W10       30.17F
KNOXVILLE      PTSUNNY   79  69  71 SW7       30.17S
OAK RIDGE      PTSUNNY   83  68  60 VRB6      30.17S
CROSSVILLE     MOSUNNY   79  66  64 VRB6      30.21S
NASHVILLE      MOSUNNY   83  71  67 VRB7      30.15R
$$

...KEY TO REMARKS...
VSB - VISIBILITY IN MILES
WCI - WIND CHILL INDEX
HX  - HEAT INDEX

$$



USA.gov is the U.S. government's official web portal to all federal, state and local government web resources and services.